Iron Mountain, MI

4:42 PM CDT on October 18, 2019 (GMT -0500)
Ford

Weather History for KIMT - September, 2019

Change the Weather History Date:

Sunday, September 15, 2019

  Actual Average Record
Temperature  
Mean Temperature 60 °F -  
Max Temperature 66 °F 66 °F 93 °F (1939)
Min Temperature 54 °F 44 °F 26 °F (1964)
Degree Days  
Heating Degree Days 5    
Growing Degree Days 10 (Base 50)    
Moisture  
Dew Point 57 °F    
Average Humidity 90    
Maximum Humidity 97    
Minimum Humidity 78    
Precipitation  
Precipitation 0.00 in - - ()
Sea Level Pressure  
Sea Level Pressure 30.05 in    
Wind  
Wind Speed 3 mph (SE)    
Max Wind Speed 7 mph    
Max Gust Speed -    
Visibility 6 miles    
Events Fog    
Averages and records for this station are not official NWS values.
T = Trace of Precipitation, MM = Missing Value Source: NWS Daily Summary

Daily Weather History Graph

Daily Weather History Graph

Search for Another Location

Airport or City:

Astronomy

Sep. 15, 2019 Rise Set
Actual Time 6:30 AM CDT 7:04 PM CDT
Civil Twilight 6:00 AM CDT 7:33 PM CDT
Nautical Twilight 5:24 AM CDT 8:09 PM CDT
Astronomical Twilight 4:48 AM CDT 8:46 PM CDT
Moon 8:08 PM CDT (9/15) 7:41 AM CDT (9/15)
Length of Visible Light 13h 33m
Length of Day
12h 33m
Full, 98% of the Moon is Illuminated
Sep 15
Full
Sep 21
Last Quarter
Sep 28
New
Oct 5
First Quarter
Oct 13
Full

Hourly Weather History & Observations

Time (CDT) Temp. Dew Point Humidity Pressure Visibility Wind Dir Wind Speed Gust Speed Precip Events Conditions
12:34 AM 57.0 °F 55.0 °F 93% 30.07 in 10.0 mi East 4.6 mph - N/A   Overcast
12:47 AM 57.0 °F 54.0 °F 89% 30.08 in 10.0 mi ENE 3.5 mph - N/A   Overcast
12:54 AM 55.9 °F 54.0 °F 93% 30.08 in 10.0 mi ESE 3.5 mph - N/A   Overcast
1:36 AM 55.0 °F 52.0 °F 89% 30.07 in 10.0 mi NE 4.6 mph - N/A   Overcast
1:54 AM 55.0 °F 52.0 °F 89% 30.07 in 10.0 mi Calm Calm - N/A   Overcast
3:05 AM 54.0 °F 51.1 °F 90% 30.05 in 10.0 mi Calm Calm - N/A   Overcast
3:54 AM 54.0 °F 52.0 °F 93% 30.06 in 4.0 mi Calm Calm - N/A   Overcast
4:39 AM 54.0 °F 52.0 °F 93% 30.05 in 1.8 mi SSE 4.6 mph - N/A   Overcast
4:54 AM 54.0 °F 52.0 °F 93% 30.06 in 1.0 mi SE 3.5 mph - N/A   Mist
5:02 AM 54.0 °F 52.0 °F 93% 30.05 in 0.5 mi ESE 4.6 mph - N/A Fog Fog
5:41 AM 54.0 °F 52.0 °F 93% 30.05 in 0.2 mi ESE 3.5 mph - N/A Fog Fog
5:54 AM 54.0 °F 53.1 °F 97% 30.06 in 0.2 mi East 3.5 mph - N/A Fog Fog
6:12 AM 54.0 °F 53.1 °F 97% 30.05 in 0.5 mi Calm Calm - N/A Fog Fog
6:54 AM 55.0 °F 53.1 °F 93% 30.06 in 0.2 mi Calm Calm - N/A Fog Fog
7:16 AM 55.0 °F 54.0 °F 96% 30.05 in 0.2 mi SE 3.5 mph - N/A Fog Fog
7:54 AM 55.9 °F 54.0 °F 93% 30.06 in 0.2 mi Variable 4.6 mph - N/A Fog Fog
8:44 AM 57.0 °F 55.9 °F 96% 30.05 in 0.2 mi East 4.6 mph - N/A Fog Fog
8:54 AM 57.9 °F 55.9 °F 93% 30.06 in 1.0 mi SE 6.9 mph - N/A   Mist
8:57 AM 57.9 °F 55.9 °F 93% 30.05 in 3.0 mi ESE 5.8 mph - N/A   Overcast
9:54 AM 59.0 °F 57.0 °F 93% 30.06 in 10.0 mi SE 5.8 mph - N/A   Overcast
10:54 AM 61.0 °F 57.9 °F 90% 30.06 in 10.0 mi ESE 6.9 mph - N/A   Overcast
11:54 AM 62.1 °F 57.9 °F 86% 30.05 in 10.0 mi East 6.9 mph - N/A   Overcast
12:37 PM 64.0 °F 59.0 °F 84% 30.04 in 10.0 mi SE 4.6 mph - N/A   Overcast
12:54 PM 64.0 °F 57.9 °F 80% 30.05 in 10.0 mi ENE 4.6 mph - N/A   Overcast
1:19 PM 64.9 °F 59.0 °F 81% 30.03 in 10.0 mi East 4.6 mph - N/A   Overcast
1:54 PM 66.0 °F 59.0 °F 78% 30.03 in 10.0 mi SE 3.5 mph - N/A   Overcast
2:54 PM 66.9 °F 60.1 °F 79% 30.02 in 10.0 mi Variable 3.5 mph - N/A   Overcast
3:40 PM 66.9 °F 60.1 °F 79% 30.01 in 10.0 mi SSE 4.6 mph - N/A   Overcast
3:54 PM 66.9 °F 60.1 °F 79% 30.01 in 10.0 mi SSE 4.6 mph - N/A   Overcast
4:54 PM 66.9 °F 60.1 °F 79% 30.00 in 10.0 mi SSE 4.6 mph - N/A   Overcast
5:12 PM 66.9 °F 60.1 °F 79% 30.00 in 10.0 mi SSW 4.6 mph - N/A   Overcast
5:54 PM 66.0 °F 60.1 °F 81% 30.02 in 10.0 mi West 3.5 mph - N/A   Overcast
6:54 PM 64.9 °F 61.0 °F 87% 30.02 in 10.0 mi WNW 3.5 mph - N/A   Overcast
7:49 PM 64.4 °F 60.8 °F 88% 30.02 in 10.0 mi Calm Calm - N/A   Overcast
7:54 PM 64.0 °F 61.0 °F 90% 30.03 in 10.0 mi Calm Calm - N/A   Overcast
8:54 PM 64.0 °F 61.0 °F 90% 30.04 in 10.0 mi Calm Calm - N/A   Overcast
9:18 PM 62.1 °F 60.1 °F 93% 30.03 in 10.0 mi Calm Calm - N/A   Scattered Clouds
9:31 PM 61.0 °F 59.0 °F 93% 30.04 in 7.0 mi ESE 3.5 mph - N/A   Scattered Clouds
9:40 PM 62.1 °F 60.1 °F 93% 30.04 in 7.0 mi SE 4.6 mph - N/A   Mostly Cloudy
9:54 PM 62.1 °F 61.0 °F 96% 30.05 in 7.0 mi SE 3.5 mph - N/A   Overcast
10:39 PM 62.1 °F 60.1 °F 93% 30.04 in 1.8 mi Calm Calm - N/A   Overcast
10:44 PM 62.1 °F 61.0 °F 96% 30.05 in 2.0 mi Calm Calm - N/A   Overcast
10:54 PM 62.1 °F 61.0 °F 96% 30.06 in 1.2 mi SSE 3.5 mph - N/A   Overcast
11:21 PM 62.1 °F 60.1 °F 93% 30.06 in 0.8 mi Calm Calm - N/A   Mist
11:54 PM 62.1 °F 61.0 °F 96% 30.06 in 0.8 mi Calm Calm - N/A   Overcast
11:58 PM 62.1 °F 60.1 °F 93% 30.06 in 2.0 mi Calm Calm - N/A   Overcast